Appleton, MN

1:05 AM CDT on April 23, 2017 (GMT -0500)
Appleton Municipal

Weather History for KAQP - September, 2012

Change the Weather History Date:

Tuesday, September 4, 2012

  Actual Average Record
Temperature  
Mean Temperature 71 °F -  
Max Temperature 89 °F 76 °F 127 °F (1997)
Min Temperature 53 °F 53 °F 41 °F (2003)
Cooling Degree Days 6    
Growing Degree Days 21 (Base 50)    
Moisture  
Dew Point 50 °F    
Average Humidity 54    
Maximum Humidity 100    
Minimum Humidity 12    
Precipitation  
Precipitation 0.00 in - - ()
Sea Level Pressure  
Sea Level Pressure 29.81 in    
Wind  
Wind Speed 5 mph (NE)    
Max Wind Speed 14 mph    
Max Gust Speed -    
Visibility 10 miles    
Events Thunderstorm    
Averages and records for this station are not official NWS values.
T = Trace of Precipitation, MM = Missing Value Source: NWS Daily Summary

Daily Weather History Graph

Daily Weather History Graph

Search for Another Location

Airport or City:

Trip Planner

Search our weather history database for the weather conditions in past years. The results will help you decide how hot, cold, wet, or windy it might be!

Date:

Astronomy

Sep. 04, 2012 Rise Set
Actual Time 6:49 AM CDT 7:54 PM CDT
Civil Twilight 6:19 AM CDT 8:24 PM CDT
Nautical Twilight 5:43 AM CDT 9:00 PM CDT
Astronomical Twilight 5:05 AM CDT 9:38 PM CDT
Moon 9:32 PM CDT (9/4) 11:12 AM CDT (9/4)
Length of Visible Light 14h 05m
Length of Day
13h 04m
Waning Gibbous, 83% of the Moon is Illuminated
Sep 4
Waning Gibbous
Sep 8
Last Quarter
Sep 15
New
Sep 22
First Quarter
Sep 29
Full

Hourly Weather History & Observations

Time (CDT) Temp. Heat Index Dew Point Humidity Pressure Visibility Wind Dir Wind Speed Gust Speed Precip Events Conditions
12:13 AM 69.8 °F - 53.6 °F 56% 29.83 in 10.0 mi SE 8.1 mph - N/A   Clear
12:17 AM 69.8 °F - 53.6 °F 56% 29.83 in 10.0 mi SE 6.9 mph - N/A   Clear
12:33 AM 68.0 °F - 53.6 °F 60% 29.83 in 10.0 mi ESE 8.1 mph - N/A   Clear
12:37 AM 68.0 °F - 53.6 °F 60% 29.83 in 10.0 mi ESE 6.9 mph - N/A   Clear
12:53 AM 66.2 °F - 55.4 °F 68% 29.83 in 10.0 mi East 4.6 mph - N/A   Clear
12:58 AM 64.4 °F - 55.4 °F 73% 29.83 in 10.0 mi ENE 6.9 mph - N/A   Clear
1:13 AM 64.4 °F - 55.4 °F 73% 29.82 in 10.0 mi ESE 6.9 mph - N/A Thunderstorm Clear
1:18 AM 64.4 °F - 55.4 °F 73% 29.82 in 10.0 mi ESE 5.8 mph - N/A Thunderstorm Clear
1:33 AM 64.4 °F - 55.4 °F 73% 29.82 in 10.0 mi East 5.8 mph - N/A   Clear
1:38 AM 64.4 °F - 55.4 °F 73% 29.82 in 10.0 mi ESE 5.8 mph - N/A   Clear
1:53 AM 62.6 °F - 55.4 °F 77% 29.82 in 10.0 mi SE 3.5 mph - N/A Thunderstorm Clear
1:58 AM 64.4 °F - 55.4 °F 73% 29.82 in 10.0 mi SE 3.5 mph - N/A   Clear
2:13 AM 64.4 °F - 57.2 °F 77% 29.82 in 10.0 mi SE 6.9 mph - N/A   Clear
2:17 AM 64.4 °F - 57.2 °F 77% 29.82 in 10.0 mi SE 5.8 mph - N/A   Clear
2:34 AM 64.4 °F - 57.2 °F 77% 29.81 in 10.0 mi SE 8.1 mph - N/A   Clear
2:37 AM 64.4 °F - 57.2 °F 77% 29.81 in 10.0 mi SE 6.9 mph - N/A   Clear
2:54 AM 64.4 °F - 57.2 °F 77% 29.81 in 10.0 mi SSE 3.5 mph - N/A   Clear
2:57 AM 64.4 °F - 57.2 °F 77% 29.81 in 10.0 mi SSE 4.6 mph - N/A   Clear
3:14 AM 62.6 °F - 57.2 °F 82% 29.81 in 10.0 mi SSE 4.6 mph - N/A   Clear
3:17 AM 62.6 °F - 57.2 °F 82% 29.80 in 10.0 mi SE 5.8 mph - N/A   Clear
3:33 AM 62.6 °F - 57.2 °F 82% 29.80 in 10.0 mi SE 4.6 mph - N/A   Clear
3:38 AM 62.6 °F - 57.2 °F 82% 29.80 in 10.0 mi SE 4.6 mph - N/A   Clear
3:53 AM 62.6 °F - 57.2 °F 82% 29.81 in 10.0 mi Calm Calm - N/A   Clear
3:57 AM 60.8 °F - 57.2 °F 88% 29.81 in 10.0 mi Calm Calm - N/A   Clear
4:13 AM 60.8 °F - 55.4 °F 82% 29.80 in 10.0 mi East 4.6 mph - N/A   Clear
4:17 AM 59.0 °F - 55.4 °F 88% 29.81 in 10.0 mi East 3.5 mph - N/A   Clear
4:33 AM 59.0 °F - 55.4 °F 88% 29.81 in 10.0 mi East 3.5 mph - N/A   Clear
4:37 AM 59.0 °F - 55.4 °F 88% 29.82 in 10.0 mi Calm Calm - N/A   Clear
4:53 AM 59.0 °F - 55.4 °F 88% 29.82 in 10.0 mi East 3.5 mph - N/A   Clear
4:57 AM 57.2 °F - 55.4 °F 94% 29.82 in 10.0 mi East 4.6 mph - N/A   Clear
5:14 AM 57.2 °F - 55.4 °F 94% 29.83 in 10.0 mi Calm Calm - N/A   Clear
5:17 AM 57.2 °F - 55.4 °F 94% 29.83 in 10.0 mi Calm Calm - N/A   Clear
5:33 AM 55.4 °F - 53.6 °F 94% 29.83 in 10.0 mi NNE 3.5 mph - N/A   Clear
5:38 AM 55.4 °F - 53.6 °F 94% 29.83 in 10.0 mi NE 4.6 mph - N/A   Clear
5:54 AM 55.4 °F - 53.6 °F 94% 29.83 in 10.0 mi Calm Calm - N/A   Clear
5:58 AM 55.4 °F - 53.6 °F 94% 29.83 in 10.0 mi Calm Calm - N/A   Clear
6:13 AM 55.4 °F - 53.6 °F 94% 29.83 in 10.0 mi Calm Calm - N/A   Clear
6:17 AM 55.4 °F - 53.6 °F 94% 29.83 in 10.0 mi Calm Calm - N/A   Clear
6:33 AM 55.4 °F - 53.6 °F 94% 29.84 in 10.0 mi Calm Calm - N/A   Clear
6:38 AM 55.4 °F - 53.6 °F 94% 29.84 in 10.0 mi Calm Calm - N/A   Clear
6:53 AM 55.4 °F - 53.6 °F 94% 29.84 in 7.0 mi Calm Calm - N/A   Clear
6:57 AM 53.6 °F - 51.8 °F 94% 29.84 in 7.0 mi Calm Calm - N/A   Clear
7:13 AM 55.4 °F - 53.6 °F 94% 29.84 in 7.0 mi SW 6.9 mph - N/A   Clear
7:17 AM 55.4 °F - 55.4 °F 100% 29.84 in 10.0 mi SW 6.9 mph - N/A   Clear
7:33 AM 60.8 °F - 57.2 °F 88% 29.84 in 10.0 mi SW 5.8 mph - N/A   Clear
7:37 AM 60.8 °F - 57.2 °F 88% 29.84 in 10.0 mi SW 5.8 mph - N/A   Clear
7:54 AM 62.6 °F - 57.2 °F 82% 29.84 in 10.0 mi WSW 6.9 mph - N/A   Clear
7:57 AM 62.6 °F - 57.2 °F 82% 29.84 in 10.0 mi WSW 6.9 mph - N/A   Clear
8:13 AM 62.6 °F - 57.2 °F 82% 29.84 in 10.0 mi WSW 4.6 mph - N/A   Clear
8:17 AM 64.4 °F - 57.2 °F 77% 29.84 in 10.0 mi SW 3.5 mph - N/A   Clear
8:33 AM 66.2 °F - 57.2 °F 73% 29.84 in 10.0 mi SW 4.6 mph - N/A   Clear
8:37 AM 66.2 °F - 57.2 °F 73% 29.84 in 10.0 mi SW 5.8 mph - N/A   Clear
8:54 AM 68.0 °F - 57.2 °F 68% 29.84 in 10.0 mi WSW 4.6 mph - N/A   Clear
8:58 AM 68.0 °F - 59.0 °F 73% 29.84 in 10.0 mi West 5.8 mph - N/A   Clear
9:13 AM 69.8 °F - 59.0 °F 68% 29.84 in 10.0 mi West 5.8 mph - N/A   Clear
9:17 AM 69.8 °F - 59.0 °F 68% 29.83 in 10.0 mi West 5.8 mph - N/A   Clear
9:33 AM 71.6 °F - 57.2 °F 60% 29.84 in 10.0 mi West 5.8 mph - N/A   Clear
9:37 AM 71.6 °F - 57.2 °F 60% 29.84 in 10.0 mi West 6.9 mph - N/A   Clear
9:53 AM 73.4 °F - 57.2 °F 57% 29.84 in 10.0 mi West 5.8 mph - N/A   Clear
9:57 AM 73.4 °F - 57.2 °F 57% 29.84 in 10.0 mi West 5.8 mph - N/A   Clear
10:13 AM 73.4 °F - 57.2 °F 57% 29.84 in 10.0 mi West 4.6 mph - N/A   Clear
10:17 AM 73.4 °F - 57.2 °F 57% 29.84 in 10.0 mi WNW 6.9 mph - N/A   Clear
10:33 AM 75.2 °F - 57.2 °F 53% 29.85 in 10.0 mi West 3.5 mph - N/A   Clear
10:38 AM 75.2 °F - 57.2 °F 53% 29.85 in 10.0 mi WNW 6.9 mph - N/A   Clear
10:53 AM 77.0 °F - 55.4 °F 47% 29.85 in 10.0 mi West 6.9 mph - N/A   Clear
10:57 AM 78.8 °F - 55.4 °F 44% 29.85 in 10.0 mi WNW 5.8 mph - N/A   Clear
11:17 AM 78.8 °F - 55.4 °F 44% 29.84 in 10.0 mi West 4.6 mph - N/A   Clear
11:33 AM 78.8 °F - 55.4 °F 44% 29.84 in 10.0 mi NNW 5.8 mph - N/A   Clear
11:37 AM 80.6 °F 80.5 °F 55.4 °F 42% 29.84 in 10.0 mi NW 5.8 mph - N/A   Clear
11:53 AM 80.6 °F 80.3 °F 53.6 °F 39% 29.83 in 10.0 mi NW 5.8 mph - N/A   Clear
11:57 AM 80.6 °F 80.3 °F 53.6 °F 39% 29.83 in 10.0 mi NW 5.8 mph - N/A   Clear
12:13 PM 80.6 °F 80.3 °F 53.6 °F 39% 29.83 in 10.0 mi WNW 5.8 mph - N/A   Clear
12:18 PM 80.6 °F 80.3 °F 53.6 °F 39% 29.83 in 10.0 mi WNW 5.8 mph - N/A   Clear
12:33 PM 80.6 °F 80.3 °F 53.6 °F 39% 29.83 in 10.0 mi NW 3.5 mph - N/A   Clear
12:53 PM 82.4 °F - 51.8 °F 35% 29.82 in 10.0 mi NNW 5.8 mph - N/A   Clear
12:57 PM 82.4 °F - 50.0 °F 32% 29.82 in 10.0 mi NNW 4.6 mph - N/A   Clear
1:14 PM 84.2 °F - 46.4 °F 27% 29.82 in 10.0 mi NW 6.9 mph - N/A   Clear
1:17 PM 84.2 °F - 46.4 °F 27% 29.82 in 10.0 mi NW 6.9 mph - N/A   Clear
1:33 PM 84.2 °F - 46.4 °F 27% 29.82 in 10.0 mi NW 4.6 mph - N/A   Clear
1:38 PM 84.2 °F - 46.4 °F 27% 29.82 in 10.0 mi North 5.8 mph - N/A   Clear
1:53 PM 86.0 °F - 44.6 °F 23% 29.82 in 10.0 mi NW 6.9 mph - N/A   Clear
1:57 PM 87.8 °F - 44.6 °F 22% 29.82 in 10.0 mi NW 5.8 mph - N/A   Clear
2:13 PM 87.8 °F - 44.6 °F 22% 29.82 in 10.0 mi WNW 4.6 mph - N/A   Clear
2:18 PM 86.0 °F - 44.6 °F 23% 29.82 in 10.0 mi NW 3.5 mph - N/A   Clear
2:33 PM 87.8 °F - 41.0 °F 19% 29.81 in 10.0 mi NW 4.6 mph - N/A   Clear
2:38 PM 87.8 °F - 41.0 °F 19% 29.81 in 10.0 mi WNW 8.1 mph - N/A   Clear
2:57 PM 87.8 °F - 37.4 °F 17% 29.80 in 10.0 mi WNW 4.6 mph - N/A   Clear
3:13 PM 87.8 °F - 37.4 °F 17% 29.80 in 10.0 mi NNW 6.9 mph - N/A   Clear
3:17 PM 87.8 °F - 33.8 °F 15% 29.80 in 10.0 mi NNW 6.9 mph - N/A   Clear
3:33 PM 87.8 °F - 35.6 °F 16% 29.79 in 10.0 mi Calm Calm - N/A   Clear
3:37 PM 87.8 °F - 35.6 °F 16% 29.79 in 10.0 mi NW 3.5 mph - N/A   Clear
3:54 PM 87.8 °F - 37.4 °F 17% 29.79 in 10.0 mi North 4.6 mph - N/A   Clear
3:57 PM 87.8 °F - 37.4 °F 17% 29.79 in 10.0 mi Calm Calm - N/A   Clear
4:13 PM 89.6 °F - 39.2 °F 17% 29.79 in 10.0 mi Calm Calm - N/A   Clear
4:17 PM 87.8 °F - 37.4 °F 17% 29.79 in 10.0 mi NE 6.9 mph - N/A   Clear
4:33 PM 89.6 °F - 33.8 °F 14% 29.79 in 10.0 mi ENE 4.6 mph - N/A   Clear
4:37 PM 87.8 °F - 33.8 °F 15% 29.79 in 10.0 mi North 6.9 mph - N/A   Clear
4:53 PM 89.6 °F - 33.8 °F 14% 29.79 in 10.0 mi North 5.8 mph - N/A   Clear
4:57 PM 89.6 °F - 33.8 °F 14% 29.79 in 10.0 mi North 5.8 mph - N/A   Clear
5:13 PM 89.6 °F - 30.2 °F 12% 29.79 in 10.0 mi North 4.6 mph - N/A   Clear
5:17 PM 89.6 °F - 30.2 °F 12% 29.78 in 10.0 mi North 4.6 mph - N/A   Clear
5:33 PM 89.6 °F - 32.0 °F 13% 29.78 in 10.0 mi NE 5.8 mph - N/A   Clear
5:37 PM 87.8 °F - 32.0 °F 14% 29.78 in 10.0 mi NE 4.6 mph - N/A   Clear
5:54 PM 87.8 °F - 35.6 °F 16% 29.78 in 10.0 mi ENE 4.6 mph - N/A   Clear
5:58 PM 87.8 °F - 35.6 °F 16% 29.78 in 10.0 mi NE 3.5 mph - N/A   Clear
6:13 PM 84.2 °F - 39.2 °F 20% 29.78 in 10.0 mi ENE 5.8 mph - N/A   Clear
6:17 PM 84.2 °F - 42.8 °F 23% 29.78 in 10.0 mi ENE 6.9 mph - N/A   Clear
6:33 PM 84.2 °F - 41.0 °F 22% 29.77 in 10.0 mi East 5.8 mph - N/A   Clear
6:38 PM 84.2 °F - 41.0 °F 22% 29.77 in 10.0 mi ENE 4.6 mph - N/A   Clear
6:53 PM 82.4 °F - 42.8 °F 25% 29.78 in 10.0 mi NE 4.6 mph - N/A   Clear
6:58 PM 82.4 °F - 44.6 °F 26% 29.77 in 10.0 mi NE 4.6 mph - N/A   Clear
7:13 PM 80.6 °F - 48.2 °F 32% 29.77 in 10.0 mi East 4.6 mph - N/A   Clear
7:17 PM 78.8 °F - 48.2 °F 34% 29.77 in 10.0 mi East 5.8 mph - N/A   Clear
7:33 PM 77.0 °F - 51.8 °F 41% 29.76 in 10.0 mi ENE 4.6 mph - N/A   Clear
7:37 PM 77.0 °F - 51.8 °F 41% 29.76 in 10.0 mi ENE 3.5 mph - N/A   Clear
7:53 PM 73.4 °F - 53.6 °F 50% 29.76 in 10.0 mi East 4.6 mph - N/A   Clear
7:57 PM 73.4 °F - 51.8 °F 47% 29.76 in 10.0 mi East 4.6 mph - N/A   Clear
8:13 PM 71.6 °F - 51.8 °F 50% 29.76 in 7.0 mi NE 5.8 mph - N/A   Clear
8:17 PM 69.8 °F - 51.8 °F 53% 29.75 in 7.0 mi NE 6.9 mph - N/A   Clear
8:33 PM 68.0 °F - 53.6 °F 60% 29.76 in 10.0 mi NE 4.6 mph - N/A   Clear
8:38 PM 68.0 °F - 53.6 °F 60% 29.76 in 10.0 mi NE 4.6 mph - N/A   Clear
8:53 PM 66.2 °F - 53.6 °F 64% 29.76 in 10.0 mi ENE 4.6 mph - N/A   Clear
8:57 PM 66.2 °F - 53.6 °F 64% 29.76 in 10.0 mi ENE 5.8 mph - N/A   Clear
9:13 PM 66.2 °F - 51.8 °F 60% 29.75 in 10.0 mi ENE 4.6 mph - N/A Thunderstorm Clear
9:18 PM 68.0 °F - 51.8 °F 56% 29.77 in 10.0 mi East 3.5 mph - N/A Thunderstorm Clear
9:33 PM 68.0 °F - 51.8 °F 56% 29.77 in 10.0 mi East 4.6 mph - N/A   Clear
9:37 PM 69.8 °F - 50.0 °F 49% 29.78 in 10.0 mi ESE 4.6 mph - N/A   Clear
9:53 PM 69.8 °F - 50.0 °F 49% 29.82 in 10.0 mi SW 5.8 mph - N/A   Clear
9:57 PM 69.8 °F - 50.0 °F 49% 29.82 in 10.0 mi West 4.6 mph - N/A   Clear
10:14 PM 69.8 °F - 51.8 °F 53% 29.79 in 10.0 mi Calm Calm - N/A   Clear
10:17 PM 69.8 °F - 51.8 °F 53% 29.80 in 10.0 mi Calm Calm - N/A   Clear
10:33 PM 66.2 °F - 53.6 °F 64% 29.80 in 10.0 mi ESE 4.6 mph - N/A   Clear
10:37 PM 66.2 °F - 53.6 °F 64% 29.79 in 10.0 mi SE 5.8 mph - N/A   Clear
10:53 PM 69.8 °F - 51.8 °F 53% 29.77 in 10.0 mi SSE 12.7 mph - N/A   Clear
10:57 PM 71.6 °F - 48.2 °F 43% 29.76 in 10.0 mi SSE 13.8 mph - N/A   Clear
11:14 PM 71.6 °F - 48.2 °F 43% 29.76 in 10.0 mi SE 5.8 mph - N/A   Clear
11:17 PM 71.6 °F - 48.2 °F 43% 29.77 in 10.0 mi ESE 5.8 mph - N/A   Clear
11:33 PM 71.6 °F - 46.4 °F 41% 29.76 in 10.0 mi ESE 8.1 mph - N/A   Clear
11:37 PM 71.6 °F - 46.4 °F 41% 29.75 in 10.0 mi SE 9.2 mph - N/A   Clear
11:54 PM 71.6 °F - 46.4 °F 41% 29.77 in 10.0 mi SSW 4.6 mph - N/A   Clear
11:57 PM 69.8 °F - 46.4 °F 43% 29.76 in 10.0 mi Calm Calm - N/A   Clear